This demonstration page uses our WeatherBlox Daily Observations layout. Learn more.

Left ArrowRight Arrow

40.92945, -100.16068

Hourly Observations for April 1, 2020

Temp ( °F °C ) Dew Point ( °F °C ) Humidity (%) Winds ( mph kmh ) Pressure ( in mb ) Visibility ( mi km ) Precip ( " mm )
12:15 am 00:15 Clear 54 12 40 4.5 60 60 SSW 14 22 29.80 1009 10 16 0.00 0.00
12:35 am 00:35 Clear 52 11.2 41 4.8 65 65 SSW 12 19 29.82 1010 10 16 0.00 0.00
12:55 am 00:55 Clear 51 10.3 41 4.9 69 69 SSW 7 11 29.83 1010 10 16 0.00 0.00
1:15 am 01:15 Clear 50 10.1 40 4.6 69 69 Calm 29.83 1010 10 16 0.00 0.00
1:35 am 01:35 Clear 48 8.7 40 4.2 74 74 Calm 29.84 1011 10 16 0.00 0.00
1:55 am 01:55 Clear 49 9.6 40 4.6 71 71 Calm 29.83 1010 10 16 0.00 0.00
2:15 am 02:15 Clear 50 9.8 40 4.6 70 70 WSW 6 9 29.84 1011 10 16 0.00 0.00
2:35 am 02:35 Clear 46 8 39 4 76 76 Calm 29.85 1011 10 16 0.00 0.00
2:55 am 02:55 Clear 46 8 39 4 76 76 Calm 29.85 1011 10 16 0.00 0.00
3:15 am 03:15 Clear 48 9 39 4.1 72 72 Calm 29.84 1011 10 16 0.00 0.00
3:35 am 03:35 Clear 45 7 38 3.5 79 79 Calm 29.86 1011 10 16 0.00 0.00
3:55 am 03:55 Clear 44 6.7 38 3.5 80 80 SW 3 6 29.85 1011 10 16 0.00 0.00
4:15 am 04:15 Clear 46 8 39 4.1 77 77 S 3 6 29.84 1010 10 16 0.00 0.00
4:35 am 04:35 Clear 43 6.3 39 3.8 84 84 Calm 29.85 1011 10 16 0.00 0.00
4:55 am 04:55 Clear 43 6.2 39 3.7 84 84 Calm 29.85 1011 10 16 0.00 0.00
5:15 am 05:15 Partly Cloudy 41 4.9 38 3.5 91 91 Calm 29.86 1011 10 16 0.00 0.00
5:35 am 05:35 Clear 41 4.9 38 3.6 91 91 Calm 29.86 1011 10 16 0.00 0.00
5:55 am 05:55 Clear 41 5 39 3.7 91 91 Calm 29.86 1011 10 16 0.00 0.00
6:15 am 06:15 Clear 40 4.5 38 3.6 94 94 Calm 29.85 1011 10 16 0.00 0.00
6:35 am 06:35 Clear 40 4.4 38 3.5 94 94 Calm 29.85 1011 10 16 0.00 0.00
6:55 am 06:55 Clear 40 4.5 39 3.7 95 95 Calm 29.85 1011 10 16 0.00 0.00
7:15 am 07:15 Clear 38 3.6 37 2.9 95 95 E 5 7 29.85 1011 10 16 0.00 0.00
7:35 am 07:35 Sunny 39 4.1 38 3.3 95 95 ESE 3 6 29.85 1011 10 16 0.00 0.00
7:55 am 07:55 Sunny 38 3.3 37 2.7 96 96 SE 3 6 29.85 1011 10 16 0.00 0.00
8:15 am 08:15 Sunny 41 5.1 40 4.4 95 95 SE 3 6 29.85 1011 10 16 0.00 0.00
8:35 am 08:35 Sunny 45 7.1 42 5.8 92 92 SE 6 9 29.82 1010 10 16 0.00 0.00
8:55 am 08:55 Sunny 47 8.6 44 6.5 87 87 SE 7 11 29.79 1009 10 16 0.00 0.00
9:15 am 09:15 Sunny 49 9.7 44 6.9 83 83 SSE 8 13 29.78 1009 10 16 0.00 0.00
9:35 am 09:35 Sunny 51 10.3 45 7.1 81 81 SSE 9 15 29.77 1008 10 16 0.00 0.00
9:55 am 09:55 Sunny 53 11.7 46 7.6 76 76 SSE 10 17 29.76 1008 10 16 0.00 0.00
10:15 am 10:15 Sunny 55 12.8 46 7.8 72 72 S 12 19 29.74 1007 10 16 0.00 0.00
10:35 am 10:35 Sunny 56 13.3 47 8.2 71 71 S 10 17 29.73 1007 10 16 0.00 0.00
10:55 am 10:55 Sunny 57 14.1 48 8.7 70 70 S 9 15 29.72 1007 10 16 0.00 0.00
11:15 am 11:15 Sunny 57 14.1 48 8.8 71 71 S 10 17 29.72 1007 10 16 0.00 0.00
11:35 am 11:35 Sunny 58 14.6 48 9 69 69 S 14 22 29.71 1006 10 16 0.00 0.00
11:55 am 11:55 Sunny 58 14.6 48 9.1 70 70 SSE 15 24 29.70 1006 10 16 0.00 0.00
12:15 pm 12:15 Sunny 59 14.9 49 9.2 69 69 SSE 12 19 29.70 1006 10 16 0.00 0.00
12:35 pm 12:35 Sunny 59 15.1 49 9.3 69 69 SSE 15 24 29.69 1005 10 16 0.00 0.00
12:55 pm 12:55 Partly Cloudy 60 15.4 49 9.4 68 68 SSE 13 20 29.66 1004 10 16 0.00 0.00
1:15 pm 13:15 Sunny 60 15.7 50 9.8 68 68 SSE 16 26 29.66 1004 10 16 0.00 0.00
1:35 pm 13:35 Partly Cloudy 60 15.7 50 9.8 68 68 S 15 24 29.65 1004 10 16 0.00 0.00
1:55 pm 13:55 Mostly Cloudy 62 16.5 50 9.8 65 65 SSE 15 24 29.63 1003 10 16 0.00 0.00
2:15 pm 14:15 Mostly Cloudy 62 16.5 50 10.1 66 66 S 17 28 29.63 1003 10 16 0.00 0.00
2:35 pm 14:35 Partly Cloudy 62 16.7 50 10 65 65 S 13 20 29.62 1003 10 16 0.00 0.00
2:55 pm 14:55 Partly Cloudy 63 17 50 9.9 63 63 SSE 12 19 29.60 1002 10 16 0.00 0.00
3:15 pm 15:15 Partly Cloudy 63 17.3 50 10.1 63 63 S 17 28 29.60 1002 10 16 0.00 0.00
3:35 pm 15:35 Partly Cloudy 65 18.2 50 9.8 58 58 S 15 24 29.57 1001 10 16 0.00 0.00
3:55 pm 15:55 Partly Cloudy 65 18.5 50 9.9 57 57 SSW 15 24 29.57 1001 10 16 0.00 0.00
4:15 pm 16:15 Partly Cloudy 65 18.6 50 9.9 57 57 S 10 17 29.57 1001 10 16 0.00 0.00
4:35 pm 16:35 Partly Cloudy 66 19 50 10.1 56 56 S 15 24 29.55 1001 10 16 0.00 0.00
4:55 pm 16:55 Partly Cloudy 67 19.4 51 10.4 56 56 S 13 20 29.55 1001 10 16 0.00 0.00
5:15 pm 17:15 Partly Cloudy 67 19.6 50 9.8 53 53 S 12 19 29.55 1001 10 16 0.00 0.00
5:35 pm 17:35 Sunny 68 20 49 9.6 51 51 SSW 14 22 29.54 1000 10 16 0.00 0.00
5:55 pm 17:55 Sunny 68 20 49 9.5 51 51 SSE 13 20 29.53 1000 10 16 0.00 0.00
6:15 pm 18:15 Sunny 68 20 49 9.7 52 52 SSE 15 24 29.53 1000 10 16 0.00 0.00
6:35 pm 18:35 Partly Cloudy 67 19.7 50 10 54 54 S 13 20 29.55 1001 10 16 0.00 0.00
6:55 pm 18:55 Partly Cloudy 67 19.5 50 9.9 54 54 S 12 19 29.55 1001 10 16 0.00 0.00
7:15 pm 19:15 Sunny 65 18.1 49 9.6 58 58 SSE 14 22 29.57 1001 10 16 0.00 0.00
7:35 pm 19:35 Sunny 63 17.1 49 9.6 62 62 SSE 9 15 29.58 1002 10 16 0.00 0.00
7:55 pm 19:55 Sunny 61 16.2 49 9.5 65 65 SSE 8 13 29.60 1002 10 16 0.00 0.00
8:15 pm 20:15 Clear 60 15.6 49 9.3 66 66 SE 7 11 29.60 1002 10 16 0.00 0.00
8:35 pm 20:35 Clear 60 15.3 49 9.2 67 67 ESE 6 9 29.61 1003 10 16 0.00 0.00
8:55 pm 20:55 Clear 58 14.2 48 9.1 72 72 ESE 6 9 29.62 1003 10 16 0.00 0.00
9:15 pm 21:15 Clear 54 12.2 48 8.8 80 80 E 8 13 29.66 1004 10 16 0.00 0.00
9:35 pm 21:35 Clear 53 11.8 48 9 83 83 E 8 13 29.66 1005 10 16 0.00 0.00
9:55 pm 21:55 Clear 55 12.6 49 9.3 80 80 E 8 13 29.66 1004 10 16 0.00 0.00
10:15 pm 22:15 Clear 53 11.8 48 9.1 84 84 E 8 13 29.66 1005 10 16 0.00 0.00
10:35 pm 22:35 Clear 54 12.2 49 9.2 82 82 ENE 7 11 29.67 1005 10 16 0.00 0.00
10:55 pm 22:55 Partly Cloudy 53 11.6 49 9.3 86 86 NE 8 13 29.69 1005 10 16 0.00 0.00
11:15 pm 23:15 Partly Cloudy 53 11.6 49 9.4 86 86 N 12 19 29.70 1006 10 16 0.00 0.00
11:35 pm 23:35 Clear 51 10.5 46 7.5 82 82 NNE 16 26 29.71 1006 10 16 0.00 0.00
11:55 pm 23:55 Clear 48 9 44 6.9 87 87 N 17 28 29.73 1007 10 16 0.00 0.00

Powered by AerisWeather